ASTRA 1H                
1 25785U 99033A   19266.81785660 -.00000286  00000-0  00000-0 0  9993
2 25785   5.4171  65.2993 0002958 109.0461  55.3558  1.00275493 26769
SL-12 R/B(2)            
1 25788U 99033D   19267.18599003 -.00000059  00000-0  00000+0 0  9998
2 25788  15.7981 263.9314 5054971 338.9522  27.0966  1.85814507137600